Showing default

KUIPER-00178, 67767

Orbit data source: Space-Track

KUIPER-00178, 67767 is a payload satellite owned by Kuiper Systems (US) in LEO that was launched on Thu, 12 Feb 2026 UTC via an ARIANE 64 launch vehicle from the French Guiana (FRGUI). Payload-class satellites include a variety of spacecraft equipped with specific instruments for various scientific and technological missions. These include communications satellites like Starlink; space stations such as the ISS; scientific satellites like the Hubble; Earth observation satellites from companies like Planet Labs, Umbra, and HawkEye 360; GPS; miniature CubeSats for education and research; and military/defense satellites.

Loading next visibility...
Identifier
67767, 2026-030D
Orbit
LEO
Country
Flag of USUS
Related business
Manufacturer
Kuiper Systems
Mission
Operational Commercial Communications
Bus & Motor
KUIPER, Unknown motor
Mass
~490 kg wet, ~490 kg dry
Launch date (UTC)
2026-02-12 (4 months ago)
Launch vehicle
ARIANE 64
Launch site
French Guiana (FRGUI)
Object type
Payload
Rocket body
Debris
Shape & HBR
Box + 2 Pan, 3.4 m
Radar Cross Section
2.326 m², Large (>1 m²)

Expand to show TLE details & history
Last TLE update: 10 hours ago

TLE from 10 hours ago
0 KUIPER-00178
1 67767U 26030D   26171.41668980 -.00009483  00000-0 -12144-2 0  9993
2 67767  51.8989 118.8472 0001213  98.2597 179.2170 14.80010535  5091
Epoch: 2026-06-20T10:00Z
TLE epoch observation values (Epoch: 2026-06-20T10:00:01.998Z)
Latitude
-51.43615°
Longitude
-17.81155°
Altitude
647.849 km
Speed
7.533 km/s
True Right ascension
02h 43m 18s
True Declination
-51° 15' 57"
Sunlit
Object was in daylight at epoch
Visualization orbit readout
Latitude
Unknown
Longitude
Unknown
Altitude
Unknown
Speed
Unknown
Apparent Right ascension
Unknown
Apparent Declination
Unknown
Sunlit
N/A
Visualization observer readout
Local Sidereal Time
07:21:16
Azimuth
Unknown
Elevation
Unknown
Doppler factor
Unknown
Orbital elements
Apogee altitude
630.592 km
Perigee altitude
628.892 km
Semi-major axis
7,007.879 km
Eccentricity
0.00012
Inclination
51.8989°
RAAN
118.8472°
Arg. of periapsis
98.2597°
True anomaly
179.21719°
Mean anomaly
179.217°
Eccentric anomaly
179.21709°
Mean motion
3.69967 °/min
Orbital period
97.31 mins
BSTAR
-0.0012144
Loading maneuver chart data...
Computing Atmospheric mass density...
Loading historical data...
Loading historical data...
Loading historical data...
Loading historical data...
Loading historical data...
Loading historical data...
Loading historical data...

Documentation

Showing up to 5 results
|